Weather in Sayansk

Russia / Irkutsk Oblast     54°06′38″N   102°10′48″E
temp.,
°C
wind,
m/s
gust,
m/s
humid.,
%
clouds,
%
prec.,
mm/h
press.,
hPa
HPBL,
m
17 may, mon
mon1723:00+7w1499100 5.0 1010261
02:00+6nw1499100 9.5 1009244
05:00+6wnw2698100 2.0 1010329
08:00+8wnw368098 2.3 1011728
11:00+10wnw4858100 0.0 10101565
14:00+8w4669100 0.0 10101053
17:00+9wnw4765100 0.1 10101313
20:00+7wnw478297 0.3 1010803
18 may, tue
tue1823:00+6wnw4983100 0.1 1011535
02:00+5w398896 0.1 1012334
05:00+4w2693100 0.1 1012241
08:00+6w3578100 0.2 1012723
11:00+6wsw4479100 0.1 1012832
14:00+5ssw2492100 0.3 1010550
17:00+9ssw1269100 0.1 1005871
20:00+7ene2588100 0.8 1002176
19 may, wed
wed1923:00+6e4896100 5.3 998399
02:00+5ene51096100 12.6 996507
05:00+4nnw4897100 7.9 1002697
08:00+6nw488794 8.0 1006752
11:00+9nw346155 0.3 10061536
14:00+12sw224799 0.3 10031727
17:00+11sse2351100 0.0 10011356
20:00+7ene2588100 2.8 1002830
20 may, thu
thu2023:00+5nne3891100 5.0 1003739
02:00+4wnw1287100 5.2 100459
05:00+4n1188100 0.0 100525
08:00+6nne1275100 0.0 1005313
11:00+9e2356100 0.0 10041408
14:00+10e3555100 0.0 10021461
17:00+8sse1379100 1.7 1002797
20:00+6ne4988100 7.4 1003696
21 may, fri
fri2123:00+5ne41090100 0.9 1004792
02:00+5ne4992100 1.3 1003786
05:00+4n4895100 1.7 1003693
08:00+5nw3789100 2.6 1003592
11:00+4nnw5987100 0.6 1005809
14:00+5n41178100 3.1 10051505
17:00+5nnw51381100 2.1 10071386
20:00+5w2685100 3.4 1007174